Showing default

LEMUR 2 LLOYD, 60577

Orbit data source: Space-Track

LEMUR 2 LLOYD, 60577 is an American payload satellite in SSO that was launched on Fri, 16 Aug 2024 UTC via an FALCON 9 launch vehicle from the Air Force Western Test Range (AFWTR). Payload-class satellites include a variety of spacecraft equipped with specific instruments for various scientific and technological missions. These include communications satellites like Starlink; space stations such as the ISS; scientific satellites like the Hubble; Earth observation satellites from companies like Planet Labs, Umbra, and HawkEye 360; GPS; miniature CubeSats for education and research; and military/defense satellites.

Loading next visibility...
Identifier
60577, 2024-149DP
Orbit
SSO
Country
Flag of USUS
Related business
Manufacturer
Spire/Glasgow
Mission
Operational Commercial Com/MetRO
Bus & Motor
CUBESAT 3U, Unknown motor
Mass
7.6 kg wet, 7.6 kg dry
Launch date (UTC)
2024-08-16 (2 years ago)
Launch vehicle
FALCON 9
Launch site
Air Force Western Test Range (AFWTR)
Object type
Payload
Rocket body
Debris
Shape & HBR
Box + 2 Pan, 0.5 m
Radar Cross Section
0.063 m², Small (<0.1 m²)

Expand to show TLE details & history
Last TLE update: 8 hours ago

TLE from 8 hours ago
0 LEMUR 2 LLOYD
1 60577U 24149DP  26126.12838043  .00008855  00000-0  57249-3 0  9997
2 60577  97.6736 207.2638 0002344 293.6018  66.4964 15.08439214 94055
Epoch: 2026-05-06T03:04Z
TLE epoch observation values (Epoch: 2026-05-06T03:04:52.069Z)
Latitude
0.00002°
Longitude
-62.94647°
Altitude
543.389 km
Speed
7.591 km/s
True Right ascension
13h 49m 03s
True Declination
0° 00' 00"
Sunlit
Object was in full shadow at epoch
Visualization orbit readout
Latitude
Unknown
Longitude
Unknown
Altitude
Unknown
Speed
Unknown
Apparent Right ascension
Unknown
Apparent Declination
Unknown
Sunlit
N/A
Visualization observer readout
Local Sidereal Time
19:19:21
Azimuth
Unknown
Elevation
Unknown
Doppler factor
Unknown
Orbital elements
Apogee altitude
539.583 km
Perigee altitude
536.34 km
Semi-major axis
6,916.099 km
Eccentricity
0.00023
Inclination
97.6736°
RAAN
207.2638°
Arg. of periapsis
293.6018°
True anomaly
66.52103°
Mean anomaly
66.4964°
Eccentric anomaly
66.50872°
Mean motion
3.77356 °/min
Orbital period
95.4 mins
BSTAR
0.00057249
Loading maneuver chart data...
Computing Atmospheric mass density...
Loading historical data...
Loading historical data...
Loading historical data...
Loading historical data...
Loading historical data...
Loading historical data...
Loading historical data...

Documentation

Showing up to 5 results
|